TimeMST,TemperatureF,Dew PointF,Humidity,Sea Level PressureIn,VisibilityMPH,Wind Direction,Wind SpeedMPH,Gust SpeedMPH,PrecipitationIn,Events,Conditions,WindDirDegrees,DateUTC
12:15 AM,39.2,13.1,34,30.09,10.0,ESE,4.6,-,N/A,,Clear,110,2012-12-30 07:15:00
12:35 AM,39.2,12.9,34,30.08,10.0,ESE,3.5,-,N/A,,Clear,110,2012-12-30 07:35:00
12:55 AM,39.4,13.1,34,30.08,10.0,Calm,Calm,-,N/A,,Scattered Clouds,0,2012-12-30 07:55:00
1:15 AM,40.1,13.1,33,30.08,10.0,Calm,Calm,-,N/A,,Scattered Clouds,0,2012-12-30 08:15:00
1:35 AM,39.4,13.1,34,30.08,10.0,SE,5.8,-,N/A,,Scattered Clouds,130,2012-12-30 08:35:00
1:55 AM,40.3,13.1,33,30.08,10.0,ESE,6.9,-,N/A,,Scattered Clouds,120,2012-12-30 08:55:00
2:15 AM,39.6,12.9,34,30.07,10.0,ESE,6.9,-,N/A,,Clear,120,2012-12-30 09:15:00
2:35 AM,38.8,12.9,35,30.06,10.0,ESE,5.8,-,N/A,,Clear,120,2012-12-30 09:35:00
2:55 AM,38.3,12.7,35,30.06,10.0,East,4.6,-,N/A,,Clear,100,2012-12-30 09:55:00
3:15 AM,38.3,12.6,35,30.05,10.0,Calm,Calm,-,N/A,,Clear,0,2012-12-30 10:15:00
3:35 AM,34.9,13.1,41,30.05,10.0,Calm,Calm,-,N/A,,Clear,0,2012-12-30 10:35:00
3:55 AM,34.3,13.3,42,30.05,10.0,East,3.5,-,N/A,,Clear,100,2012-12-30 10:55:00
4:15 AM,34.5,13.1,41,30.04,10.0,Calm,Calm,-,N/A,,Clear,0,2012-12-30 11:15:00
4:35 AM,36.9,12.9,37,30.04,10.0,Calm,Calm,-,N/A,,Clear,0,2012-12-30 11:35:00
4:55 AM,35.4,13.6,41,30.04,10.0,Calm,Calm,-,N/A,,Clear,0,2012-12-30 11:55:00
5:15 AM,36.5,13.5,39,30.04,10.0,Calm,Calm,-,N/A,,Clear,0,2012-12-30 12:15:00
5:35 AM,36.5,13.5,39,30.04,10.0,East,3.5,-,N/A,,Clear,90,2012-12-30 12:35:00
5:55 AM,37.8,13.1,36,30.04,10.0,Calm,Calm,-,N/A,,Clear,0,2012-12-30 12:55:00
6:15 AM,34.2,14.4,44,30.03,10.0,Calm,Calm,-,N/A,,Clear,0,2012-12-30 13:15:00
6:35 AM,36.3,14.0,40,30.04,10.0,East,3.5,-,N/A,,Clear,80,2012-12-30 13:35:00
6:55 AM,36.3,13.6,39,30.04,10.0,Calm,Calm,-,N/A,,Clear,0,2012-12-30 13:55:00
7:15 AM,31.8,14.5,49,30.04,10.0,Calm,Calm,-,N/A,,Clear,0,2012-12-30 14:15:00
7:35 AM,31.6,14.9,50,30.04,10.0,SE,3.5,-,N/A,,Clear,140,2012-12-30 14:35:00
7:55 AM,32.5,15.1,49,30.03,10.0,Calm,Calm,-,N/A,,Clear,0,2012-12-30 14:55:00
8:15 AM,34.5,15.4,46,30.04,10.0,Calm,Calm,-,N/A,,Clear,0,2012-12-30 15:15:00
8:35 AM,36.1,15.3,43,30.04,10.0,Calm,Calm,-,N/A,,Scattered Clouds,0,2012-12-30 15:35:00
8:55 AM,37.2,15.8,42,30.06,10.0,Calm,Calm,-,N/A,,Scattered Clouds,0,2012-12-30 15:55:00
9:15 AM,39.9,15.3,37,30.06,10.0,SSE,4.6,-,N/A,,Mostly Cloudy,150,2012-12-30 16:15:00
9:35 AM,41.4,15.4,35,30.06,10.0,SE,4.6,-,N/A,,Mostly Cloudy,140,2012-12-30 16:35:00
9:55 AM,41.9,15.4,34,30.06,10.0,ESE,3.5,-,N/A,,Mostly Cloudy,120,2012-12-30 16:55:00
10:15 AM,43.0,15.8,33,30.05,10.0,ESE,6.9,-,N/A,,Scattered Clouds,120,2012-12-30 17:15:00
10:35 AM,43.9,15.8,32,30.05,10.0,SE,6.9,-,N/A,,Scattered Clouds,130,2012-12-30 17:35:00
10:55 AM,43.9,15.8,32,30.05,10.0,ESE,8.1,-,N/A,,Mostly Cloudy,120,2012-12-30 17:55:00
11:15 AM,42.8,15.6,33,30.03,10.0,ESE,8.1,-,N/A,,Mostly Cloudy,120,2012-12-30 18:15:00
11:35 AM,43.2,16.0,33,30.01,10.0,East,6.9,-,N/A,,Scattered Clouds,100,2012-12-30 18:35:00
11:55 AM,43.3,16.2,33,30.00,10.0,ESE,4.6,-,N/A,,Mostly Cloudy,120,2012-12-30 18:55:00
12:15 PM,44.6,16.3,32,29.99,10.0,SE,8.1,-,N/A,,Mostly Cloudy,130,2012-12-30 19:15:00
12:35 PM,45.1,16.7,32,29.97,10.0,SE,10.4,-,N/A,,Scattered Clouds,130,2012-12-30 19:35:00
12:55 PM,45.1,16.7,32,29.95,10.0,ESE,8.1,-,N/A,,Scattered Clouds,120,2012-12-30 19:55:00
1:15 PM,45.5,16.7,32,29.94,10.0,ESE,9.2,-,N/A,,Scattered Clouds,120,2012-12-30 20:15:00
1:35 PM,46.4,17.1,31,29.93,10.0,ESE,10.4,-,N/A,,Overcast,110,2012-12-30 20:35:00
1:55 PM,46.9,17.2,31,29.93,10.0,SE,8.1,-,N/A,,Overcast,130,2012-12-30 20:55:00
2:15 PM,47.3,17.4,30,29.91,10.0,ESE,8.1,-,N/A,,Mostly Cloudy,120,2012-12-30 21:15:00
2:35 PM,47.7,17.4,30,29.90,10.0,SE,5.8,-,N/A,,Overcast,130,2012-12-30 21:35:00
2:55 PM,47.7,17.4,30,29.90,10.0,SE,6.9,-,N/A,,Overcast,130,2012-12-30 21:55:00
3:15 PM,47.3,17.6,31,29.89,10.0,East,6.9,-,N/A,,Overcast,90,2012-12-30 22:15:00
3:35 PM,45.7,17.6,33,29.88,10.0,East,6.9,-,N/A,,Overcast,80,2012-12-30 22:35:00
3:55 PM,45.7,17.2,32,29.87,10.0,East,5.8,-,N/A,,Overcast,80,2012-12-30 22:55:00
4:15 PM,45.3,17.6,33,29.86,10.0,East,6.9,-,N/A,,Overcast,100,2012-12-30 23:15:00
4:35 PM,44.8,17.6,34,29.87,10.0,SE,4.6,-,N/A,,Overcast,130,2012-12-30 23:35:00
4:55 PM,44.8,17.6,34,29.88,10.0,SSE,4.6,-,N/A,,Overcast,160,2012-12-30 23:55:00
5:15 PM,45.5,18.1,34,29.90,10.0,Calm,Calm,-,N/A,,Overcast,0,2012-12-31 00:15:00
5:35 PM,45.0,17.8,34,29.88,10.0,Calm,Calm,-,N/A,,Overcast,0,2012-12-31 00:35:00
5:55 PM,46.0,20.7,37,29.90,10.0,SE,13.8,-,N/A,Rain,Light Rain,130,2012-12-31 00:55:00
6:15 PM,44.2,24.8,46,29.89,10.0,SE,8.1,-,N/A,,Drizzle,130,2012-12-31 01:15:00
6:35 PM,42.8,28.6,57,29.88,10.0,East,5.8,-,N/A,Rain,Light Rain,100,2012-12-31 01:35:00
6:55 PM,42.8,30.0,61,29.86,10.0,ENE,3.5,-,N/A,Rain,Light Rain,60,2012-12-31 01:55:00
7:15 PM,41.7,32.5,70,29.87,10.0,Calm,Calm,-,N/A,,Overcast,0,2012-12-31 02:15:00
7:35 PM,40.5,33.8,77,29.87,10.0,SSE,9.2,-,0.01,Rain,Light Rain,150,2012-12-31 02:35:00
7:55 PM,40.6,32.4,72,29.88,10.0,SSW,6.9,-,0.01,Rain,Light Rain,210,2012-12-31 02:55:00
8:15 PM,41.4,32.5,71,29.88,10.0,WSW,5.8,-,N/A,Rain,Rain,250,2012-12-31 03:15:00
8:35 PM,41.0,31.3,68,29.86,10.0,SE,4.6,-,0.01,,Overcast,140,2012-12-31 03:35:00
8:55 PM,39.7,31.1,71,29.86,10.0,SSE,8.1,-,0.01,,Mostly Cloudy,150,2012-12-31 03:55:00
9:15 PM,40.5,29.3,64,29.86,10.0,SSE,9.2,-,N/A,,Overcast,150,2012-12-31 04:15:00
9:35 PM,41.0,28.8,62,29.87,10.0,South,8.1,-,N/A,,Overcast,170,2012-12-31 04:35:00
9:55 PM,40.1,30.2,68,29.88,10.0,SW,6.9,-,N/A,Rain,Light Rain,230,2012-12-31 04:55:00
10:15 PM,40.6,28.4,62,29.90,10.0,SW,6.9,-,N/A,,Overcast,220,2012-12-31 05:15:00
10:35 PM,40.1,29.8,67,29.90,10.0,SSE,9.2,-,N/A,,Drizzle,160,2012-12-31 05:35:00
10:55 PM,40.5,29.7,65,29.91,10.0,SW,6.9,-,N/A,Rain,Rain,220,2012-12-31 05:55:00
11:15 PM,39.6,30.7,71,29.92,10.0,WSW,6.9,-,N/A,Rain,Rain,250,2012-12-31 06:15:00
11:35 PM,39.0,33.6,81,29.93,10.0,WSW,5.8,-,N/A,Rain,Rain,240,2012-12-31 06:35:00
11:55 PM,38.5,34.7,86,29.91,10.0,Calm,Calm,-,N/A,,Overcast,0,2012-12-31 06:55:00